INTELSAT 20 (IS-20) (38740 NORAD) Tracking and Keplerian Element Data

This shows tracking and keplerian element data for the satellite.

Feedback or suggestion? Click here.




ElementValue
Catalog38740
NameINTELSAT 20 (IS-20)
Epoch Orbit3345
Epoch Day269.84886326
Epoch Year2021
RAAN176.4687
Inclination0.0109
Eccentricity0.0002024
Argument of Perigee1.6144
Mean Anonmoly201.8858
Mean Motion1.00272433
Decay Rate-2.6E-07
L11 38740U 12043A 21269.84886326 -.00000026 00000-0 00000-0 0 9996
L22 38740 0.0109 176.4687 0002024 1.6144 201.8858 1.00272433 33456

Live tracking and technical data element details for INTELSAT 20 (IS-20) (NORAD 38740). INTELSAT 20 (IS-20) can be tracked NOW for your location showing map with azimuth and elevation plus other details from your city location.

Track the satellite on the map from your city or location and see movement details for azimuth, elevation, latitude, longitude, range, height, and movement on the map or in text.







IsCatalogInMostPopularTable: catalog: 38740, numindb: 607
Update: records affected: 1



GetName: 38740 INTELSAT 20 (IS-20)

Hit Count: updated at: Tue, 28 Sep 2021 16:34:08 GMT